Location: Champs
(48.8539°N, 2.6040°E)
Time: 06:14:54
(UTC+00:00)

Meteor 1-21 - Pass Details

Date: 26 October 2021
Orbit: 844 x 887 km, 81.2° (Epoch: 04 December)

Event Time Altitude Azimuth Distance (km) Brightness Sun altitude
Exits shadow 03:54:59 67° 291° (WNW) 923 4.1 -25.5°
Drops below altitude 10° 04:00:30 10° 7° (N) 2,482 6.8 -24.6°
Sets 04:02:57 0° 11° (N) 3,419 7.6 -24.2°
